Wind_Speed
8 3 4 6 7 9 9 10 10 10 13 17 23 26 27 27 27 27 27 28 30 28 25 24 26 27 28 22 23 23 20 19
3 2 4 7 9 11 12 12 11 11 12 14 19 23 26 27 30 28 28 28 27 30 29 27 29 29 30 29 23 22 22 17
4 4 7 9 10 12 14 14 14 13 13 14 17 23 22 28 28 29 31 28 29 31 32 31 32 31 30 30 29 21 20 21
2 5 8 10 12 13 15 16 17 16 17 17 18 21 27 26 27 29 29 32 33 33 34 31 30 31 30 33 31 28 21 21
5 7 10 12 12 13 15 16 18 19 19 19 19 21 24 26 27 29 30 32 33 35 34 37 32 33 30 32 31 29 23 20
8 10 14 15 16 16 17 18 18 19 20 20 22 23 24 27 31 30 30 30 34 35 37 35 36 35 33 31 30 31 29 23
10 12 15 16 17 18 19 19 20 21 21 21 22 26 27 28 29 32 28 30 29 34 35 38 38 34 34 33 34 35 33 28
10 12 15 19 21 21 22 22 24 24 24 24 25 26 28 31 32 32 33 27 27 30 37 36 37 37 34 35 35 30 28 29
11 13 16 18 20 21 23 24 27 27 27 27 27 27 28 31 33 35 34 31 32 30 35 36 36 36 35 34 34 34 41 35
13 14 16 18 20 22 22 23 26 26 27 29 29 28 29 32 35 37 39 38 31 30 33 36 35 34 33 32 31 32 32 31
13 13 19 20 22 23 24 24 26 28 28 28 28 32 34 35 36 39 42 39 37 30 30 34 34 33 33 34 30 28 24 22
11 12 18 19 22 24 25 26 28 29 30 33 32 33 32 31 34 38 40 39 36 30 30 31 33 31 37 34 33 28 28 23
11 13 18 20 22 23 24 25 27 30 32 32 33 31 29 24 25 13 26 33 31 32 26 28 31 33 36 37 34 31 28 24
13 13 16 21 22 23 24 25 27 32 36 31 29 26 27 27 26 14 19 21 24 28 24 24 29 32 36 37 34 34 33 27
12 13 15 21 22 22 24 26 28 29 29 29 29 32 28 23 20 17 13 11 7 17 22 27 29 31 31 32 29 26 25 22
12 13 14 20 22 24 26 27 28 29 26 29 34 32 30 30 24 27 22 19 18 13 12 18 22 26 27 29 29 25 26 25
12 14 17 19 24 25 25 26 29 28 26 28 30 32 30 28 32 37 35 32 26 22 19 17 13 17 24 22 24 26 27 23
12 12 16 20 22 22 23 24 24 26 28 31 33 33 36 35 32 41 36 36 39 37 34 28 26 19 16 28 31 31 28 26
10 14 17 19 19 21 21 22 25 28 31 32 32 31 33 34 36 36 34 34 41 41 38 32 36 32 31 31 33 30 28 24
Wind_Direction
70 317 335 336 344 344 344 333 324 312 287 272 248 240 236 233 230 227 221 219 220 217 216 217 214 208 207 215 216 216 218 223
128 339 356 357 355 346 346 342 335 325 304 284 264 244 245 235 234 234 227 220 219 217 217 214 210 210 208 204 210 208 216 216
109 21 11 6 355 350 338 334 331 326 312 299 285 280 270 242 244 241 229 223 218 216 214 210 210 205 206 199 197 201 207 202
36 10 11 357 354 349 339 333 325 320 314 303 292 275 272 271 235 238 237 225 221 218 217 213 212 207 205 203 200 199 200 201
14 360 354 348 348 341 335 331 323 318 314 304 297 290 281 266 254 240 232 229 227 224 218 214 213 207 205 200 203 203 204 201
1 358 349 339 342 338 332 326 323 319 311 303 294 286 280 278 274 273 233 228 226 225 226 219 213 206 204 197 200 199 203 204
356 351 345 342 340 335 331 328 324 320 313 303 292 283 279 275 273 268 257 226 225 222 224 222 220 210 203 200 202 201 199 204
348 349 344 339 337 333 330 327 323 319 313 304 295 285 280 273 266 266 262 250 225 221 219 224 217 212 205 203 205 194 205 210
353 350 340 337 333 329 327 326 321 317 313 305 296 288 279 270 264 260 259 251 234 223 213 218 216 211 208 205 206 193 201 211
354 346 346 338 333 330 327 322 318 315 313 309 300 295 285 272 264 260 259 250 236 218 207 211 217 212 205 201 206 206 203 206
346 345 344 341 338 333 329 327 324 320 318 315 308 307 293 279 265 253 249 243 227 215 204 201 209 204 202 202 203 204 199 201
343 345 345 344 342 338 334 335 329 328 326 325 322 310 300 294 286 243 242 238 220 214 195 196 203 200 199 200 198 195 190 192
347 351 352 353 349 340 340 339 332 332 334 332 326 315 314 323 333 304 247 234 220 215 196 196 201 203 200 203 193 186 181 187
355 353 358 359 346 345 346 344 342 340 343 337 324 329 342 351 348 340 329 245 228 222 210 196 199 199 197 199 191 182 177 181
354 354 359 357 349 351 351 351 353 348 345 342 338 357 351 357 0 4 27 44 222 208 199 211 200 193 190 192 186 192 173 175
4 356 1 350 355 355 358 357 355 355 355 357 358 1 14 21 20 32 42 53 52 79 157 176 180 181 184 187 174 169 154 156
5 5 358 352 359 357 357 358 358 0 7 9 6 12 20 24 36 42 42 47 50 56 66 89 98 150 169 165 150 149 150 150
11 4 0 1 359 357 1 360 5 11 17 18 18 20 28 26 32 46 45 46 48 43 47 54 59 40 127 156 151 138 129 128
17 4 4 4 360 6 9 12 16 19 23 24 24 28 35 36 37 39 39 48 53 46 39 43 62 45 75 88 134 129 122 116
Height
722 733 736 736 735 736 736 735 735 735 733 730 729 729 729 730 730 732 735 737 742 746 748 753 756 755 758 763 768 771 773 774
727 735 736 736 735 735 736 736 735 734 732 729 726 723 724 723 725 726 729 731 735 737 741 745 747 750 751 754 763 767 770 771
729 733 735 737 737 736 735 734 734 733 732 729 727 722 718 717 719 720 721 724 727 729 732 735 740 741 746 748 752 760 765 767
732 734 735 737 737 738 737 734 734 733 731 729 725 721 716 712 711 713 714 715 719 721 725 729 733 735 738 742 745 750 757 762
733 734 736 737 737 739 738 736 734 731 730 727 724 722 715 708 705 704 706 708 711 714 717 720 724 727 730 733 741 745 751 755
734 734 736 736 736 737 737 736 734 731 729 728 725 720 715 709 703 697 695 699 702 706 710 713 716 718 722 725 733 737 742 748
735 736 737 736 737 737 736 734 732 730 727 725 723 719 715 709 702 694 688 688 692 696 702 706 709 711 713 718 722 726 730 736
736 737 738 738 737 736 734 732 730 727 724 721 718 714 710 705 699 692 686 681 683 685 692 698 700 703 705 710 714 721 730 731
738 740 740 740 740 737 735 732 728 725 720 716 712 707 702 697 693 687 680 675 675 678 680 688 692 696 699 704 707 713 712 725
740 742 742 741 740 738 737 733 728 723 717 710 705 698 693 688 683 679 672 667 666 668 670 678 684 688 693 697 702 704 709 699
742 742 742 742 741 738 736 732 726 719 712 704 696 687 683 676 670 664 660 655 657 659 663 668 676 680 686 692 697 700 702 705
747 747 747 745 743 740 736 730 723 715 706 696 688 682 675 665 654 645 646 645 647 651 654 660 668 673 679 686 690 695 698 704
748 748 748 747 746 744 738 731 724 714 704 695 686 679 668 654 642 633 634 639 642 645 650 655 661 667 673 679 682 687 693 700
750 750 750 749 749 745 740 733 724 712 699 694 687 677 662 647 642 634 630 635 638 640 645 650 656 661 666 672 677 681 685 692
758 756 754 753 751 746 740 733 724 717 706 698 688 671 665 657 650 643 635 633 636 638 642 649 652 657 663 668 673 679 678 684
763 762 759 758 753 747 739 733 726 718 711 700 686 677 669 662 658 647 644 639 639 639 642 645 648 653 659 666 668 674 677 684
769 767 766 763 755 749 743 736 729 722 714 706 698 686 676 671 662 655 653 649 649 648 647 645 649 652 657 663 666 671 679 685
774 773 770 765 761 756 749 742 735 727 719 710 702 694 683 678 674 666 668 664 661 661 661 659 658 664 657 659 664 669 676 677
778 777 774 770 766 760 754 747 740 732 724 719 712 706 699 693 687 679 680 676 672 676 676 675 670 678 664 661 663 672 679 686